[[{"header":{"parameterUnit":"m.s-1","parameterCategory":1,"la1":30.2991,"la2":30.254,"lo1":-89.0895,"lo2":-89.0444,"dy":0.0017,"dx":0.0017,"nx":28,"ny":28,"refTime":"2025-02-03T03:00:00:Z","depth":0,"parameterNumber":2,"parameterNumberName":"U-component_of_WINDS"},"data":[0,0,0,0,0,0,0,0,0,0,0,0,0,0,0,0,0,0,0,0,0,0,0,0,0,0,0,0,0,0,0,0,0,0,0,0,0,0,0,0,0,0,0,0,0,0,0,0,0,0,0,0,0,0,0,0,0,0,-0.7637,-0.7637,0,-0.7603,-0.7603,-0.7602,-0.7544,-0.7543,-0.7542,-0.7541,-0.7507,-0.7507,-0.7508,0,0,0,0,0,0,0,0,0,0,0,0,0,-0.7653,-0.7653,-0.7637,-0.7637,-0.7636,-0.7603,-0.7603,-0.7602,-0.7545,-0.7543,-0.7542,-0.7541,-0.7507,-0.7507,-0.7508,0,0,0,0,0,0,0,0,0,0,0,0,0,-0.7635,-0.7653,-0.7637,-0.7603,-0.76,-0.7603,-0.7603,-0.7602,-0.7545,-0.7543,-0.7542,-0.754,-0.7507,-0.7507,-0.7508,-0.7541,0,0,-0.7508,-0.7508,0,0,0,0,0,0,0,0,-0.7636,-0.7635,-0.7609,-0.7606,-0.7602,-0.7576,-0.7596,-0.7582,-0.7545,-0.7566,-0.7541,-0.7539,-0.7532,-0.753,-0.7527,-0.7539,-0.7538,-0.7508,-0.7508,-0.7508,-0.7508,0,0,0,0,0,0,0,-0.7638,-0.7636,-0.7624,-0.7609,-0.7604,-0.759,-0.7586,-0.7593,-0.7558,-0.7564,-0.756,-0.7556,-0.7529,-0.7527,-0.7526,-0.7537,-0.7508,-0.7508,-0.7508,-0.7508,-0.7576,-0.7577,0,0,0,0,0,0,-0.7644,-0.7637,-0.7625,-0.7623,-0.7615,-0.7591,-0.7587,-0.7586,-0.7558,-0.7552,-0.7558,-0.7554,-0.7527,-0.7526,-0.7524,-0.7561,-0.7508,-0.7508,-0.7508,-0.7574,-0.7576,-0.7578,0,0,0,0,0,0,-0.7644,-0.7643,-0.7626,-0.7629,-0.7625,-0.7593,-0.7593,-0.7586,-0.7584,-0.7553,-0.7547,-0.7562,-0.7526,-0.7524,-0.7537,-0.756,-0.7508,-0.7509,-0.7572,-0.7575,-0.7577,-0.7637,0,0,0,0,0,0,-0.7645,-0.7644,-0.7656,-0.7629,-0.7626,-0.764,-0.7594,-0.7587,-0.7584,-0.7579,-0.7555,-0.755,-0.7525,-0.7537,-0.7537,-0.7559,-0.7509,-0.757,-0.7573,-0.7576,-0.7632,-0.7641,-0.7648,0,0,0,0,0,-0.7646,-0.7674,-0.7657,-0.7656,-0.764,-0.7641,-0.7639,-0.7609,-0.7586,-0.7598,-0.7579,-0.755,-0.7557,-0.7539,-0.7539,-0.7561,-0.7568,-0.7572,-0.7576,-0.7629,-0.7639,-0.7648,0,0,0,0,0,0,-0.7704,-0.767,-0.765,-0.7671,-0.7659,-0.7631,-0.7645,-0.7621,-0.7615,-0.7611,-0.7574,-0.7569,-0.7587,-0.7575,-0.7556,-0.7591,-0.7558,-0.7562,-0.7599,-0.7608,-0.7616,-0.7618,-0.7509,0,0,0,0,0,-0.772,-0.7723,-0.7693,-0.7714,-0.7709,-0.7679,-0.7678,-0.7656,-0.7642,-0.7637,-0.7619,-0.7607,-0.7606,-0.7606,-0.7604,-0.763,-0.7624,-0.7645,-0.7653,-0.7659,-0.7663,-0.7676,-0.7685,-0.759,-0.759,-0.759,0,0,-0.7752,-0.7733,-0.7738,-0.7725,-0.7714,-0.7718,-0.7675,-0.7681,-0.7684,-0.7638,-0.7649,-0.7636,-0.762,-0.764,-0.7648,-0.763,-0.7688,-0.7664,-0.767,-0.767,-0.7681,-0.769,-0.7698,-0.7593,-0.7592,-0.7592,0,0,-0.7812,-0.7798,-0.7814,-0.7803,-0.7786,-0.7765,-0.7769,-0.7745,-0.7734,-0.7744,-0.771,-0.7713,-0.7713,-0.7703,-0.7698,-0.7754,-0.7728,-0.7755,-0.7795,-0.7808,-0.7816,-0.7822,-0.7843,-0.785,-0.7759,-0.7759,-0.7759,0,-0.7853,-0.7858,-0.7826,-0.7834,-0.783,-0.7788,-0.7805,-0.7796,-0.7779,-0.7777,-0.7758,-0.7756,-0.7743,-0.776,-0.7774,-0.7771,-0.7774,-0.7757,-0.7817,-0.7824,-0.7829,-0.7848,-0.7856,-0.7762,-0.7762,-0.7761,-0.7761,0,-0.7911,-0.7915,-0.793,-0.7914,-0.7912,-0.7924,-0.7894,-0.7895,-0.7874,-0.7855,-0.7867,-0.7849,-0.7842,-0.7845,-0.7824,-0.7859,-0.7849,-0.7824,-0.779,-0.7842,-0.7859,-0.7866,-0.7767,-0.7766,-0.7765,-0.7764,0,0,-0.8007,-0.7973,-0.7979,-0.7972,-0.7949,-0.7952,-0.7963,-0.7956,-0.7958,-0.7948,-0.7956,-0.7956,-0.7933,-0.7928,-0.7905,-0.7917,-0.7963,-0.7891,-0.789,-0.7905,-0.8001,-0.8019,-0.8028,-0.7945,-0.7947,-0.7948,-0.8002,0,-0.8063,-0.8079,-0.805,-0.8073,-0.8076,-0.8036,-0.8046,-0.8033,-0.8016,-0.8017,-0.7998,-0.7999,-0.7969,-0.7965,-0.7975,-0.7955,-0.7982,-0.7951,-0.7953,-0.7953,-0.7958,-0.8037,-0.8057,-0.8109,-0.8008,-0.8009,-0.801,0,-0.813,-0.8123,-0.8146,-0.8122,-0.8123,-0.8131,-0.8123,-0.8124,-0.8109,-0.8096,-0.809,-0.8063,-0.8072,-0.8039,-0.8051,-0.8031,-0.803,-0.8021,-0.8022,-0.8021,-0.7985,-0.8039,-0.8125,-0.8133,-0.8021,-0.802,-0.8019,0,-0.8198,-0.8194,-0.8207,-0.8202,-0.8175,-0.8182,-0.8171,-0.8154,-0.8152,-0.8145,-0.8143,-0.8137,-0.8134,-0.813,-0.8103,-0.8081,-0.8118,-0.8083,-0.8107,-0.8108,-0.8117,-0.8117,-0.8205,-0.8116,-0.8116,-0.8116,-0.8116,0,-0.8263,-0.8279,-0.8238,-0.8246,-0.8263,-0.8229,-0.8247,-0.8232,-0.8217,-0.8222,-0.8187,-0.8193,-0.8156,-0.8158,-0.8136,-0.8149,-0.8148,-0.8138,-0.8132,-0.8141,-0.8143,-0.814,-0.8136,-0.8118,-0.8118,-0.8117,-0.8117,0,-0.8342,-0.8315,-0.8327,-0.83,-0.8294,-0.8307,-0.8284,-0.8291,-0.8272,-0.8278,-0.8278,-0.8248,-0.8248,-0.822,-0.8214,-0.82,-0.8222,-0.821,-0.8227,-0.8223,-0.8249,-0.8248,-0.8339,-0.8349,-0.8255,-0.8256,-0.8256,0,-0.8386,-0.8397,-0.8371,-0.8372,-0.8362,-0.8364,-0.8361,-0.8329,-0.8328,-0.8311,-0.832,-0.8317,-0.8313,-0.8315,-0.8292,-0.8288,-0.8275,-0.8307,-0.8274,-0.8283,-0.8276,-0.8275,-0.8276,-0.8315,-0.8316,-0.8317,-0.8318,0,-0.8466,-0.8452,-0.8449,-0.8442,-0.844,-0.8433,-0.8424,-0.8427,-0.8391,-0.8391,-0.8391,-0.8388,-0.8381,-0.8379,-0.837,-0.8359,-0.8333,-0.8328,-0.8334,-0.8343,-0.8353,-0.8348,-0.8246,-0.8326,-0.8325,-0.8325,-0.8324,-0.8324,-0.8528,-0.8537,-0.852,-0.8518,-0.8508,-0.85,-0.8505,-0.8486,-0.8485,-0.8477,-0.8458,-0.846,-0.8445,-0.8431,-0.8422,-0.8423,-0.8407,-0.8415,-0.8417,-0.842,-0.8425,-0.8352,-0.8422,-0.8421,-0.8421,-0.8421,-0.8421,0,-0.8607,-0.8594,-0.8593,-0.8581,-0.858,-0.8555,-0.8543,-0.8544,-0.8546,-0.8534,-0.8531,-0.853,-0.8527,-0.8505,-0.85,-0.8505,-0.8493,-0.8505,-0.8504,-0.8502,-0.8439,-0.8435,-0.8515,-0.8515,-0.8515,-0.8515,-0.8515,-0.8515,-0.8648,-0.866,-0.8644,-0.8651,-0.8638,-0.864,-0.8635,-0.8628,-0.8618,-0.8619,-0.8616,-0.8602,-0.8585,-0.8579,-0.8575,-0.8568,-0.8568,-0.8584,-0.8574,-0.8516,-0.8507,-0.8498,-0.8494,-0.8585,-0.8585,-0.8637,-0.8637,-0.8637]},{"header":{"parameterUnit":"m.s-1","parameterCategory":1,"la1":30.2991,"la2":30.254,"lo1":-89.0895,"lo2":-89.0444,"dy":0.0017,"dx":0.0017,"nx":28,"ny":28,"refTime":"2025-02-03T03:00:00:Z","depth":0,"parameterNumber":3,"parameterNumberName":"V-component_of_WINDS"},"data":[0,0,0,0,0,0,0,0,0,0,0,0,0,0,0,0,0,0,0,0,0,0,0,0,0,0,0,0,0,0,0,0,0,0,0,0,0,0,0,0,0,0,0,0,0,0,0,0,0,0,0,0,0,0,0,0,0,0,-0.0436,-0.0436,0,-0.0439,-0.0439,-0.0439,-0.0421,-0.0421,-0.042,-0.042,-0.0424,-0.0424,-0.0425,0,0,0,0,0,0,0,0,0,0,0,0,0,-0.0416,-0.0416,-0.0436,-0.0436,-0.0436,-0.0439,-0.0439,-0.0439,-0.0422,-0.0421,-0.042,-0.042,-0.0423,-0.0424,-0.0425,0,0,0,0,0,0,0,0,0,0,0,0,0,-0.0422,-0.0416,-0.0436,-0.0428,-0.0427,-0.0439,-0.0439,-0.0439,-0.0422,-0.0421,-0.042,-0.042,-0.0423,-0.0424,-0.0425,-0.0445,0,0,-0.0427,-0.0428,0,0,0,0,0,0,0,0,-0.0422,-0.0423,-0.0429,-0.0428,-0.0427,-0.0429,-0.0433,-0.0441,-0.0422,-0.0424,-0.042,-0.0419,-0.0426,-0.0427,-0.0429,-0.0445,-0.0445,-0.0427,-0.0428,-0.0428,-0.0429,0,0,0,0,0,0,0,-0.0421,-0.0423,-0.0437,-0.0429,-0.0428,-0.0424,-0.0424,-0.0434,-0.0429,-0.0423,-0.0422,-0.0423,-0.0426,-0.0428,-0.0429,-0.0445,-0.0427,-0.0428,-0.0429,-0.0429,-0.0477,-0.0478,0,0,0,0,0,0,-0.0422,-0.0422,-0.0437,-0.0437,-0.0423,-0.0425,-0.0425,-0.0429,-0.0429,-0.0428,-0.0423,-0.0422,-0.0427,-0.0428,-0.0429,-0.0452,-0.0428,-0.0429,-0.043,-0.0476,-0.0477,-0.0478,0,0,0,0,0,0,-0.0422,-0.0423,-0.0437,-0.0429,-0.0431,-0.0426,-0.0431,-0.043,-0.0432,-0.0429,-0.0428,-0.0427,-0.0426,-0.0428,-0.0441,-0.0451,-0.0429,-0.043,-0.0475,-0.0477,-0.0478,-0.0498,0,0,0,0,0,0,-0.0421,-0.0423,-0.0431,-0.043,-0.0431,-0.0449,-0.0432,-0.043,-0.0433,-0.0432,-0.0432,-0.0431,-0.0426,-0.044,-0.0442,-0.0452,-0.0431,-0.0474,-0.0476,-0.0477,-0.0496,-0.0499,-0.0502,0,0,0,0,0,-0.042,-0.0437,-0.0431,-0.0433,-0.044,-0.0449,-0.045,-0.0444,-0.0434,-0.0442,-0.044,-0.0431,-0.045,-0.0441,-0.0443,-0.0454,-0.0474,-0.0475,-0.0477,-0.0494,-0.0499,-0.0502,0,0,0,0,0,0,-0.044,-0.0436,-0.043,-0.0447,-0.0448,-0.0446,-0.0456,-0.0448,-0.0453,-0.0451,-0.0443,-0.0443,-0.0457,-0.0457,-0.0447,-0.0473,-0.046,-0.0462,-0.0473,-0.0477,-0.048,-0.0479,-0.0432,0,0,0,0,0,-0.0446,-0.0453,-0.045,-0.0465,-0.0466,-0.046,-0.0464,-0.0459,-0.046,-0.0461,-0.046,-0.0462,-0.0468,-0.0472,-0.0478,-0.0496,-0.0495,-0.0504,-0.0507,-0.051,-0.0512,-0.0521,-0.0525,-0.0484,-0.0484,-0.0484,0,0,-0.0459,-0.0458,-0.0463,-0.0468,-0.0469,-0.0477,-0.0461,-0.047,-0.0476,-0.0462,-0.0474,-0.0474,-0.0475,-0.0491,-0.0497,-0.0491,-0.0523,-0.0512,-0.0514,-0.0515,-0.0523,-0.0527,-0.0531,-0.0485,-0.0485,-0.0485,0,0,-0.0486,-0.0486,-0.0498,-0.0499,-0.0499,-0.0496,-0.0499,-0.0498,-0.0496,-0.0508,-0.0498,-0.0505,-0.0516,-0.0517,-0.052,-0.0547,-0.0539,-0.0549,-0.0565,-0.0574,-0.0577,-0.058,-0.0589,-0.0592,-0.0551,-0.0551,-0.0551,0,-0.0501,-0.0512,-0.0505,-0.0514,-0.0517,-0.0505,-0.0517,-0.0518,-0.0521,-0.0523,-0.0515,-0.0529,-0.0529,-0.0544,-0.0551,-0.0553,-0.0556,-0.0549,-0.0577,-0.058,-0.0582,-0.0591,-0.0595,-0.0552,-0.0552,-0.0552,-0.0552,0,-0.0531,-0.0539,-0.0549,-0.0551,-0.0555,-0.0566,-0.056,-0.0564,-0.0559,-0.0556,-0.0568,-0.0568,-0.0573,-0.0576,-0.0571,-0.0591,-0.0587,-0.0578,-0.0565,-0.0587,-0.0596,-0.0599,-0.0554,-0.0553,-0.0553,-0.0553,0,0,-0.0571,-0.0569,-0.0572,-0.0573,-0.0573,-0.0579,-0.0589,-0.0594,-0.0598,-0.06,-0.0608,-0.0617,-0.061,-0.0612,-0.0607,-0.0615,-0.0635,-0.0605,-0.0605,-0.0611,-0.0657,-0.0663,-0.0667,-0.063,-0.0631,-0.0631,-0.0656,0,-0.0597,-0.0614,-0.0607,-0.0624,-0.0631,-0.062,-0.0628,-0.0629,-0.0627,-0.0632,-0.063,-0.0636,-0.0625,-0.0627,-0.0634,-0.0631,-0.0645,-0.063,-0.0638,-0.0638,-0.0637,-0.0671,-0.0678,-0.0701,-0.066,-0.066,-0.066,0,-0.063,-0.0633,-0.0651,-0.0649,-0.0651,-0.0659,-0.0663,-0.0668,-0.0669,-0.0667,-0.0669,-0.0662,-0.0672,-0.0659,-0.0672,-0.0662,-0.0665,-0.0664,-0.0665,-0.0665,-0.0651,-0.0672,-0.0709,-0.0712,-0.0665,-0.0665,-0.0665,0,-0.0656,-0.0665,-0.0677,-0.0678,-0.0676,-0.0682,-0.0681,-0.0681,-0.0684,-0.0687,-0.0689,-0.0694,-0.0696,-0.0699,-0.0694,-0.0685,-0.0708,-0.0694,-0.0706,-0.0706,-0.0711,-0.0711,-0.0748,-0.0713,-0.0713,-0.0713,-0.0713,0,-0.0686,-0.0697,-0.0688,-0.0696,-0.0708,-0.07,-0.0712,-0.0711,-0.071,-0.0717,-0.0708,-0.0714,-0.0706,-0.0712,-0.0708,-0.0719,-0.072,-0.0718,-0.0717,-0.0719,-0.0719,-0.0721,-0.0719,-0.0714,-0.0714,-0.0714,-0.0714,0,-0.0718,-0.0712,-0.0724,-0.0721,-0.0721,-0.073,-0.0727,-0.0734,-0.073,-0.0739,-0.0741,-0.0735,-0.0742,-0.0736,-0.0742,-0.0739,-0.0754,-0.0751,-0.0754,-0.0753,-0.0765,-0.0764,-0.0804,-0.0809,-0.0771,-0.0772,-0.0772,0,-0.0737,-0.0745,-0.0743,-0.0746,-0.0746,-0.0752,-0.0755,-0.0748,-0.0751,-0.0752,-0.0759,-0.0764,-0.0768,-0.0778,-0.0775,-0.078,-0.0776,-0.079,-0.0777,-0.0778,-0.0776,-0.0775,-0.0776,-0.0793,-0.0793,-0.0794,-0.0794,0,-0.0771,-0.0768,-0.0772,-0.0776,-0.0779,-0.0782,-0.0783,-0.0787,-0.0779,-0.0783,-0.0789,-0.0792,-0.0798,-0.0803,-0.0807,-0.0807,-0.0799,-0.0798,-0.0801,-0.0803,-0.0804,-0.0803,-0.0761,-0.0797,-0.0797,-0.0797,-0.0796,-0.0796,-0.0797,-0.0803,-0.0803,-0.0808,-0.0808,-0.081,-0.0816,-0.0813,-0.0818,-0.0821,-0.0817,-0.0824,-0.0824,-0.0828,-0.0829,-0.0834,-0.0828,-0.0833,-0.0834,-0.0835,-0.0836,-0.0804,-0.0835,-0.0835,-0.0835,-0.0834,-0.0834,0,-0.083,-0.0829,-0.0834,-0.0836,-0.084,-0.0832,-0.0834,-0.0838,-0.0844,-0.0845,-0.0848,-0.0855,-0.086,-0.0857,-0.0861,-0.0866,-0.0863,-0.0868,-0.0867,-0.0867,-0.0841,-0.0838,-0.087,-0.087,-0.087,-0.087,-0.087,-0.087,-0.0848,-0.0859,-0.0856,-0.0866,-0.0865,-0.0872,-0.0873,-0.0875,-0.0875,-0.0883,-0.0887,-0.0885,-0.0884,-0.0888,-0.0892,-0.0891,-0.0893,-0.0899,-0.0897,-0.0873,-0.0869,-0.0866,-0.0863,-0.09,-0.09,-0.0922,-0.0922,-0.0922]}]]